TimeAST,TemperatureF,Dew PointF,Humidity,Sea Level PressureIn,VisibilityMPH,Wind Direction,Wind SpeedMPH,Gust SpeedMPH,PrecipitationIn,Events,Conditions,WindDirDegrees,DateUTC
12:50 AM,73.4,66.2,78,29.95,8.0,Calm,Calm,-,N/A,,Mostly Cloudy,0,2012-12-08 04:50:00
1:50 AM,73.4,66.2,78,29.94,8.0,Calm,Calm,-,N/A,,Mostly Cloudy,0,2012-12-08 05:50:00
2:50 AM,73.4,66.2,78,29.93,8.0,East,5.8,-,N/A,,Mostly Cloudy,90,2012-12-08 06:50:00
3:50 AM,73.4,66.2,78,29.92,8.0,Calm,Calm,-,N/A,,Mostly Cloudy,0,2012-12-08 07:50:00
4:50 AM,75.2,69.8,83,29.92,8.0,East,5.8,-,N/A,,Scattered Clouds,80,2012-12-08 08:50:00
5:50 AM,75.2,69.8,83,29.95,8.0,ENE,5.8,-,N/A,,Mostly Cloudy,70,2012-12-08 09:50:00
6:50 AM,75.2,69.8,83,29.97,10.0,Calm,Calm,-,N/A,,Mostly Cloudy,0,2012-12-08 10:50:00
7:50 AM,75.2,71.6,89,29.98,10.0,Calm,Calm,-,N/A,,Mostly Cloudy,0,2012-12-08 11:50:00
8:50 AM,78.8,73.4,83,29.99,10.0,ENE,5.8,-,N/A,,Mostly Cloudy,70,2012-12-08 12:50:00
9:50 AM,82.4,71.6,70,30.01,10.0,East,6.9,-,N/A,,Scattered Clouds,80,2012-12-08 13:50:00
10:50 AM,86.0,71.6,62,30.00,10.0,East,6.9,-,N/A,,Scattered Clouds,100,2012-12-08 14:50:00
11:50 AM,86.0,71.6,62,29.98,10.0,East,9.2,-,N/A,,Scattered Clouds,90,2012-12-08 15:50:00
12:50 PM,89.6,73.4,59,29.95,10.0,ESE,11.5,-,N/A,,Scattered Clouds,120,2012-12-08 16:50:00
2:50 PM,87.8,71.6,58,29.93,10.0,SE,17.3,-,N/A,,Scattered Clouds,130,2012-12-08 18:50:00
3:50 PM,87.8,71.6,58,29.93,10.0,ESE,11.5,17.3,N/A,,Scattered Clouds,120,2012-12-08 19:50:00
4:50 PM,86.0,73.4,66,29.94,10.0,SE,11.5,17.3,N/A,,Scattered Clouds,140,2012-12-08 20:50:00
6:50 PM,80.6,69.8,70,29.98,10.0,ESE,11.5,-,N/A,,Scattered Clouds,110,2012-12-08 22:50:00
8:50 PM,75.2,69.8,83,30.02,10.0,NE,5.8,-,N/A,,Clear,50,2012-12-09 00:50:00
9:50 PM,75.2,69.8,83,30.02,10.0,Calm,Calm,-,N/A,,Clear,0,2012-12-09 01:50:00
10:50 PM,73.4,69.8,88,30.02,8.0,Calm,Calm,-,N/A,,Partly Cloudy,0,2012-12-09 02:50:00
11:50 PM,73.4,69.8,88,30.02,8.0,Calm,Calm,-,N/A,,Partly Cloudy,0,2012-12-09 03:50:00